| time (UTC) | temp F | wind direction | speed knots | gust knots | rain 1hr in | rain 24hr in | rain mn in | humidity % | barometer mb |
| 20260509053557 | 52 | 150 | 4.3 | 8.7 | 0.00 | 0.00 | 0.00 | 88 | 1004.3 |
| 20260509053105 | 52 | 187 | 4.3 | 7.0 | 0.00 | 0.00 | 0.00 | 87 | 1004.3 |
| 20260509052557 | 52 | 137 | 5.2 | 7.8 | 0.00 | 0.00 | 0.00 | 87 | 1004.4 |
| 20260509052055 | 52 | 143 | 3.5 | 7.0 | 0.00 | 0.00 | 0.00 | 87 | 1004.4 |
| 20260509051558 | 52 | 156 | 3.5 | 7.0 | 0.00 | 0.00 | 0.00 | 87 | 1004.4 |
| 20260509051055 | 52 | 143 | 3.5 | 6.1 | 0.00 | 0.00 | 0.00 | 87 | 1004.5 |
| 20260509050554 | 52 | 161 | 2.6 | 7.0 | 0.00 | 0.00 | 0.00 | 87 | 1004.5 |
| 20260509050058 | 51 | 152 | 4.3 | 7.0 | 0.00 | 0.00 | 0.00 | 87 | 1004.5 |
| 20260509045552 | 51 | 171 | 2.6 | 6.1 | 0.00 | 0.00 | 0.00 | 86 | 1004.5 |
| 20260509045052 | 51 | 139 | 3.5 | 7.8 | 0.00 | 0.00 | 0.00 | 85 | 1004.5 |
| 20260509044553 | 51 | 151 | 4.3 | 7.8 | 0.00 | 0.00 | 0.00 | 85 | 1004.5 |
| 20260509044050 | 50 | 167 | 3.5 | 7.0 | 0.00 | 0.00 | 0.00 | 85 | 1004.8 |
| 20260509043548 | 50 | 145 | 4.3 | 7.0 | 0.00 | 0.00 | 0.00 | 85 | 1004.8 |
| 20260509043047 | 49 | 150 | 4.3 | 7.0 | 0.00 | 0.00 | 0.00 | 83 | 1004.8 |
| 20260509042545 | 48 | 137 | 3.5 | 5.2 | 0.00 | 0.00 | 0.00 | 81 | 1004.7 |
| 20260509042044 | 48 | 144 | 3.5 | 5.2 | 0.00 | 0.00 | 0.00 | 80 | 1004.7 |
| 20260509041543 | 48 | 152 | 3.5 | 5.2 | 0.00 | 0.00 | 0.00 | 78 | 1004.7 |
| 20260509041042 | 47 | 138 | 3.5 | 5.2 | 0.00 | 0.00 | 0.00 | 78 | 1004.9 |
| 20260509040539 | 46 | 154 | 2.6 | 4.3 | 0.00 | 0.00 | 0.00 | 77 | 1004.9 |
| 20260509040039 | 46 | 133 | 1.7 | 3.5 | 0.00 | 0.00 | 0.00 | 77 | 1004.9 |
| 20260509035539 | 46 | 127 | 2.6 | 4.3 | 0.00 | 0.00 | 0.00 | 78 | 1005.0 |
| 20260509035039 | 46 | 127 | 2.6 | 4.3 | 0.00 | 0.00 | 0.00 | 79 | 1005.0 |
| 20260509034544 | 46 | 128 | 2.6 | 4.3 | 0.00 | 0.00 | 0.00 | 79 | 1005.0 |
| 20260509034038 | 46 | 128 | 3.5 | 4.3 | 0.00 | 0.00 | 0.00 | 78 | 1005.1 |
| 20260509033537 | 45 | 109 | 2.6 | 4.3 | 0.00 | 0.00 | 0.00 | 79 | 1005.1 |
| 20260509033037 | 45 | 138 | 2.6 | 4.3 | 0.00 | 0.00 | 0.00 | 79 | 1005.1 |
| 20260509032537 | 45 | 136 | 3.5 | 4.3 | 0.00 | 0.00 | 0.00 | 79 | 1005.4 |
| 20260509032037 | 45 | 133 | 2.6 | 4.3 | 0.00 | 0.00 | 0.00 | 79 | 1005.4 |
| 20260509031542 | 45 | 134 | 2.6 | 3.5 | 0.00 | 0.00 | 0.00 | 79 | 1005.4 |
| 20260509031040 | 45 | 140 | 1.7 | 3.5 | 0.00 | 0.00 | 0.00 | 78 | 1005.4 |
| 20260509030539 | 46 | 140 | 2.6 | 3.5 | 0.00 | 0.00 | 0.00 | 77 | 1005.4 |
| 20260509030036 | 46 | 140 | 1.7 | 3.5 | 0.00 | 0.00 | 0.00 | 76 | 1005.4 |
| 20260509025536 | 46 | 140 | 1.7 | 3.5 | 0.00 | 0.00 | 0.00 | 76 | 1005.5 |
| 20260509025036 | 46 | 140 | 0.9 | 2.6 | 0.00 | 0.00 | 0.00 | 76 | 1005.5 |
| 20260509024536 | 46 | 142 | 0.9 | 4.3 | 0.00 | 0.00 | 0.00 | 75 | 1005.5 |
| 20260509024037 | 47 | 135 | 1.7 | 4.3 | 0.00 | 0.00 | 0.00 | 74 | 1005.6 |
| 20260509023536 | 47 | 133 | 2.6 | 3.5 | 0.00 | 0.00 | 0.00 | 72 | 1005.6 |
| 20260509023045 | 47 | 129 | 0.9 | 2.6 | 0.00 | 0.00 | 0.00 | 72 | 1005.6 |
| 20260509022535 | 48 | 129 | 0.0 | 2.6 | 0.00 | 0.00 | 0.00 | 71 | 1005.6 |
| 20260509022036 | 48 | 129 | 1.7 | 2.6 | 0.00 | 0.00 | 0.00 | 71 | 1005.6 |
| 20260509021536 | 47 | 129 | 1.7 | 2.6 | 0.00 | 0.00 | 0.00 | 72 | 1005.6 |
| 20260509021035 | 47 | 129 | 1.7 | 2.6 | 0.00 | 0.00 | 0.00 | 73 | 1005.6 |
| 20260509020535 | 48 | 129 | 0.9 | 2.6 | 0.00 | 0.00 | 0.00 | 73 | 1005.6 |
| 20260509020035 | 48 | 129 | 0.9 | 2.6 | 0.00 | 0.00 | 0.00 | 73 | 1005.6 |
| 20260509015535 | 48 | 129 | 1.7 | 3.5 | 0.00 | 0.00 | 0.00 | 72 | 1005.6 |
| 20260509015036 | 48 | 129 | 1.7 | 3.5 | 0.00 | 0.00 | 0.00 | 70 | 1005.6 |
| 20260509014536 | 49 | 129 | 2.6 | 3.5 | 0.00 | 0.00 | 0.00 | 70 | 1005.6 |
| 20260509014037 | 49 | 117 | 1.7 | 3.5 | 0.00 | 0.00 | 0.00 | 68 | 1005.6 |
| 20260509013534 | 50 | 116 | 1.7 | 3.5 | 0.00 | 0.00 | 0.00 | 67 | 1005.6 |
| 20260509013055 | 50 | 116 | 1.7 | 3.5 | 0.00 | 0.00 | 0.00 | 66 | 1005.6 |
| 20260509012535 | 51 | 100 | 0.9 | 2.6 | 0.00 | 0.00 | 0.00 | 65 | 1005.5 |
| 20260509012034 | 52 | 100 | 1.7 | 2.6 | 0.00 | 0.00 | 0.00 | 63 | 1005.5 |
| 20260509011536 | 52 | 100 | 0.0 | 0.0 | 0.00 | 0.00 | 0.00 | 62 | 1005.5 |
| 20260509011033 | 53 | 100 | 0.0 | 0.9 | 0.00 | 0.00 | 0.00 | 61 | 1005.4 |
| 20260509010533 | 54 | 100 | 0.0 | 0.9 | 0.00 | 0.00 | 0.00 | 58 | 1005.4 |
| 20260509010035 | 55 | 100 | 0.0 | 1.7 | 0.00 | 0.00 | 0.00 | 56 | 1005.4 |
| 20260509005533 | 56 | 328 | 0.9 | 2.6 | 0.00 | 0.00 | 0.00 | 52 | 1005.3 |
| 20260509005033 | 57 | 333 | 0.9 | 2.6 | 0.00 | 0.00 | 0.00 | 52 | 1005.3 |
| 20260509004535 | 58 | 333 | 1.7 | 2.6 | 0.00 | 0.00 | 0.00 | 47 | 1005.3 |
| 20260509004033 | 58 | 333 | 1.7 | 5.2 | 0.00 | 0.00 | 0.00 | 44 | 1005.2 |
| 20260509003532 | 59 | 330 | 1.7 | 5.2 | 0.00 | 0.00 | 0.00 | 43 | 1005.2 |
| 20260509003034 | 59 | 342 | 2.6 | 6.1 | 0.00 | 0.00 | 0.00 | 42 | 1005.2 |
| 20260509002534 | 59 | 331 | 2.6 | 7.0 | 0.00 | 0.00 | 0.00 | 40 | 1005.1 |
| 20260509002031 | 60 | 329 | 4.3 | 7.0 | 0.00 | 0.00 | 0.00 | 40 | 1005.1 |
| 20260509001532 | 60 | 328 | 4.3 | 7.0 | 0.00 | 0.00 | 0.00 | 40 | 1005.1 |
| 20260509001032 | 60 | 306 | 3.5 | 6.1 | 0.00 | 0.00 | 0.00 | 38 | 1005.2 |
| 20260509000531 | 61 | 333 | 4.3 | 7.8 | 0.00 | 0.00 | 0.00 | 39 | 1005.2 |
| 20260509000031 | 61 | 299 | 4.3 | 8.7 | 0.00 | 0.00 | 0.00 | 37 | 1005.2 |
| 20260508235531 | 61 | 310 | 4.3 | 8.7 | 0.00 | 0.00 | 0.00 | 37 | 1005.2 |
| 20260508235030 | 62 | 312 | 5.2 | 9.6 | 0.00 | 0.00 | 0.00 | 36 | 1005.2 |
| 20260508234531 | 62 | 312 | 5.2 | 9.6 | 0.00 | 0.00 | 0.00 | 36 | 1005.2 |
| 20260508234035 | 63 | 270 | 5.2 | 9.6 | 0.00 | 0.00 | 0.00 | 35 | 1005.4 |
| 20260508233530 | 63 | 320 | 4.3 | 8.7 | 0.00 | 0.00 | 0.00 | 35 | 1005.4 |
| 20260508233033 | 63 | 281 | 5.2 | 8.7 | 0.00 | 0.00 | 0.00 | 36 | 1005.4 |
| 20260508232530 | 63 | 288 | 5.2 | 11.3 | 0.00 | 0.00 | 0.00 | 34 | 1005.1 |
| 20260508232029 | 64 | 299 | 6.1 | 11.3 | 0.00 | 0.00 | 0.00 | 34 | 1005.1 |
| 20260508231529 | 64 | 260 | 4.3 | 9.6 | 0.00 | 0.00 | 0.00 | 34 | 1005.1 |
| 20260508231029 | 64 | 286 | 6.1 | 9.6 | 0.00 | 0.00 | 0.00 | 34 | 1005.2 |
| 20260508230528 | 64 | 288 | 5.2 | 9.6 | 0.00 | 0.00 | 0.00 | 34 | 1005.2 |
| 20260508230047 | 64 | 255 | 4.3 | 9.6 | 0.00 | 0.00 | 0.00 | 33 | 1005.2 |
| 20260508225529 | 64 | 309 | 5.2 | 8.7 | 0.00 | 0.00 | 0.00 | 33 | 1005.3 |
| 20260508225027 | 64 | 291 | 5.2 | 10.4 | 0.00 | 0.00 | 0.00 | 32 | 1005.3 |
| 20260508224553 | 65 | 322 | 7.0 | 11.3 | 0.00 | 0.00 | 0.00 | 34 | 1005.3 |
| 20260508224028 | 64 | 272 | 7.0 | 11.3 | 0.00 | 0.00 | 0.00 | 33 | 1005.2 |
| 20260508223530 | 65 | 304 | 7.0 | 10.4 | 0.00 | 0.00 | 0.00 | 34 | 1005.2 |
| 20260508223033 | 65 | 277 | 4.3 | 8.7 | 0.00 | 0.00 | 0.00 | 35 | 1005.2 |
| 20260508222527 | 65 | 341 | 6.1 | 11.3 | 0.00 | 0.00 | 0.00 | 34 | 1005.2 |
| 20260508222029 | 65 | 308 | 5.2 | 11.3 | 0.00 | 0.00 | 0.00 | 34 | 1005.2 |
| 20260508221527 | 65 | 284 | 3.5 | 10.4 | 0.00 | 0.00 | 0.00 | 33 | 1005.2 |
| 20260508221027 | 65 | 333 | 5.2 | 10.4 | 0.00 | 0.00 | 0.00 | 33 | 1005.2 |
| 20260508220525 | 65 | 281 | 6.1 | 9.6 | 0.00 | 0.00 | 0.00 | 37 | 1005.2 |
| 20260508220026 | 65 | 355 | 0.9 | 9.6 | 0.00 | 0.00 | 0.00 | 37 | 1005.2 |
| 20260508215528 | 65 | 219 | 6.1 | 9.6 | 0.00 | 0.00 | 0.00 | 36 | 1005.3 |
| 20260508215026 | 65 | 195 | 4.3 | 10.4 | 0.00 | 0.00 | 0.00 | 38 | 1005.3 |
| 20260508214525 | 65 | 247 | 4.3 | 12.2 | 0.00 | 0.00 | 0.00 | 39 | 1005.3 |
| 20260508214028 | 65 | 295 | 3.5 | 11.3 | 0.00 | 0.00 | 0.00 | 43 | 1005.3 |
| 20260508213524 | 65 | 183 | 6.1 | 11.3 | 0.00 | 0.00 | 0.00 | 37 | 1005.3 |
| 20260508213023 | 65 | 236 | 3.5 | 7.0 | 0.00 | 0.00 | 0.00 | 37 | 1005.3 |
| 20260508212527 | 65 | 225 | 2.6 | 9.6 | 0.00 | 0.00 | 0.00 | 39 | 1005.5 |
| 20260508212022 | 65 | 250 | 7.0 | 9.6 | 0.00 | 0.00 | 0.00 | 34 | 1005.5 |
| 20260508211525 | 65 | 287 | 3.5 | 11.3 | 0.00 | 0.00 | 0.00 | 35 | 1005.5 |
| 20260508211025 | 65 | 306 | 6.1 | 11.3 | 0.00 | 0.00 | 0.00 | 37 | 1005.6 |
| 20260508210522 | 65 | 234 | 6.1 | 10.4 | 0.00 | 0.00 | 0.00 | 40 | 1005.6 |
| 20260508210023 | 65 | 287 | 7.0 | 12.2 | 0.00 | 0.00 | 0.00 | 36 | 1005.6 |
| 20260508205521 | 64 | 214 | 3.5 | 12.2 | 0.00 | 0.00 | 0.00 | 40 | 1005.7 |
| 20260508205021 | 65 | 196 | 4.3 | 10.4 | 0.00 | 0.00 | 0.00 | 40 | 1005.7 |
| 20260508204522 | 65 | 244 | 5.2 | 10.4 | 0.00 | 0.00 | 0.00 | 39 | 1005.7 |
| 20260508204023 | 64 | 188 | 4.3 | 13.9 | 0.00 | 0.00 | 0.00 | 37 | 1005.9 |
| 20260508203519 | 64 | 181 | 7.8 | 13.9 | 0.00 | 0.00 | 0.00 | 40 | 1005.9 |
| 20260508203019 | 65 | 243 | 5.2 | 11.3 | 0.00 | 0.00 | 0.00 | 45 | 1005.9 |
| 20260508202519 | 64 | 173 | 5.2 | 11.3 | 0.00 | 0.00 | 0.00 | 41 | 1006.2 |
| 20260508202019 | 64 | 156 | 3.5 | 11.3 | 0.00 | 0.00 | 0.00 | 42 | 1006.2 |
| 20260508201520 | 64 | 173 | 7.8 | 11.3 | 0.00 | 0.00 | 0.00 | 42 | 1006.2 |
| 20260508201018 | 64 | 197 | 5.2 | 11.3 | 0.00 | 0.00 | 0.00 | 39 | 1006.3 |
| 20260508200518 | 65 | 195 | 4.3 | 12.2 | 0.00 | 0.00 | 0.00 | 39 | 1006.3 |
| 20260508200017 | 65 | 324 | 6.1 | 11.3 | 0.00 | 0.00 | 0.00 | 40 | 1006.3 |
| 20260508195521 | 65 | 312 | 5.2 | 12.2 | 0.00 | 0.00 | 0.00 | 44 | 1006.6 |
| 20260508195017 | 64 | 266 | 6.1 | 11.3 | 0.00 | 0.00 | 0.00 | 38 | 1006.6 |
| 20260508194515 | 63 | 241 | 4.3 | 11.3 | 0.00 | 0.00 | 0.00 | 42 | 1006.6 |
| 20260508194015 | 63 | 188 | 7.0 | 14.8 | 0.00 | 0.00 | 0.00 | 42 | 1006.7 |
| 20260508193514 | 64 | 193 | 8.7 | 20.9 | 0.00 | 0.00 | 0.00 | 40 | 1006.7 |
| 20260508193014 | 64 | 237 | 6.1 | 14.8 | 0.00 | 0.00 | 0.00 | 43 | 1006.7 |
| 20260508192515 | 64 | 205 | 5.2 | 14.8 | 0.00 | 0.00 | 0.00 | 41 | 1006.9 |
| 20260508192014 | 64 | 174 | 5.2 | 8.7 | 0.00 | 0.00 | 0.00 | 42 | 1006.9 |
| 20260508191512 | 64 | 260 | 3.5 | 13.9 | 0.00 | 0.00 | 0.00 | 43 | 1006.9 |
| 20260508191013 | 63 | 279 | 7.8 | 13.9 | 0.00 | 0.00 | 0.00 | 43 | 1007.3 |
| 20260508190513 | 62 | 272 | 7.0 | 14.8 | 0.00 | 0.00 | 0.00 | 42 | 1007.3 |
| 20260508190019 | 62 | 242 | 9.6 | 14.8 | 0.00 | 0.00 | 0.00 | 41 | 1007.3 |
| 20260508185513 | 63 | 205 | 3.5 | 13.0 | 0.00 | 0.00 | 0.00 | 43 | 1007.3 |
| 20260508185010 | 63 | 204 | 7.0 | 13.0 | 0.00 | 0.00 | 0.00 | 42 | 1007.3 |
| 20260508184510 | 63 | 214 | 6.1 | 10.4 | 0.00 | 0.00 | 0.00 | 41 | 1007.3 |
| 20260508184008 | 63 | 201 | 7.0 | 11.3 | 0.00 | 0.00 | 0.00 | 41 | 1007.5 |
| 20260508183507 | 62 | 212 | 3.5 | 8.7 | 0.00 | 0.00 | 0.00 | 45 | 1007.5 |
| 20260508183007 | 62 | 227 | 5.2 | 11.3 | 0.00 | 0.00 | 0.00 | 42 | 1007.5 |
| 20260508182506 | 62 | 281 | 6.1 | 11.3 | 0.00 | 0.00 | 0.00 | 42 | 1007.8 |
| 20260508182005 | 61 | 237 | 4.3 | 10.4 | 0.00 | 0.00 | 0.00 | 44 | 1007.8 |
| 20260508181514 | 62 | 260 | 2.6 | 8.7 | 0.00 | 0.00 | 0.00 | 43 | 1007.8 |
| 20260508181005 | 62 | 249 | 4.3 | 8.7 | 0.00 | 0.00 | 0.00 | 42 | 1007.9 |
| 20260508180504 | 61 | 248 | 3.5 | 8.7 | 0.00 | 0.00 | 0.00 | 43 | 1007.9 |
| 20260508180006 | 61 | 245 | 0.0 | 8.7 | 0.00 | 0.00 | 0.00 | 43 | 1007.9 |
| 20260508175504 | 61 | 227 | 1.7 | 8.7 | 0.00 | 0.00 | 0.00 | 40 | 1008.4 |
| 20260508175004 | 61 | 216 | 1.7 | 11.3 | 0.00 | 0.00 | 0.00 | 45 | 1008.4 |
| 20260508174502 | 61 | 262 | 7.0 | 11.3 | 0.00 | 0.00 | 0.00 | 41 | 1008.4 |
| 20260508174002 | 61 | 270 | 7.8 | 12.2 | 0.00 | 0.00 | 0.00 | 42 | 1008.5 |
| 20260508173502 | 61 | 282 | 7.0 | 12.2 | 0.00 | 0.00 | 0.00 | 43 | 1008.5 |
| 20260508173002 | 60 | 289 | 6.1 | 12.2 | 0.00 | 0.00 | 0.00 | 42 | 1008.5 |
| 20260508172503 | 60 | 243 | 4.3 | 10.4 | 0.00 | 0.00 | 0.00 | 40 | 1008.5 |
| 20260508172100 | 60 | 234 | 7.0 | 11.3 | 0.00 | 0.00 | 0.00 | 42 | 1008.5 |
| 20260508171628 | 61 | 212 | 5.2 | 11.3 | 0.00 | 0.00 | 0.00 | 44 | 1008.5 |
| 20260508171059 | 60 | 256 | 4.3 | 8.7 | 0.00 | 0.00 | 0.00 | 47 | 1008.7 |
| 20260508170558 | 60 | 241 | 3.5 | 7.0 | 0.00 | 0.00 | 0.00 | 47 | 1008.7 |
| 20260508170059 | 60 | 221 | 3.5 | 7.8 | 0.00 | 0.00 | 0.00 | 47 | 1008.7 |
| 20260508165557 | 60 | 197 | 5.2 | 11.3 | 0.00 | 0.00 | 0.00 | 45 | 1009.0 |
| 20260508165056 | 60 | 188 | 5.2 | 11.3 | 0.00 | 0.00 | 0.00 | 46 | 1009.0 |
| 20260508164603 | 60 | 162 | 4.3 | 8.7 | 0.00 | 0.00 | 0.00 | 45 | 1009.0 |
| 20260508164056 | 60 | 212 | 3.5 | 8.7 | 0.00 | 0.00 | 0.00 | 47 | 1009.3 |
| 20260508163556 | 60 | 197 | 1.7 | 6.1 | 0.00 | 0.00 | 0.00 | 48 | 1009.3 |
| 20260508163058 | 60 | 291 | 1.7 | 10.4 | 0.00 | 0.00 | 0.00 | 52 | 1009.3 |
| 20260508162557 | 60 | 164 | 7.0 | 9.6 | 0.00 | 0.00 | 0.00 | 51 | 1009.2 |
| 20260508162054 | 60 | 178 | 7.8 | 10.4 | 0.00 | 0.00 | 0.00 | 48 | 1009.2 |
| 20260508161602 | 59 | 152 | 0.9 | 7.0 | 0.00 | 0.00 | 0.00 | 46 | 1009.2 |
| 20260508161053 | 59 | 258 | 2.6 | 7.8 | 0.00 | 0.00 | 0.00 | 47 | 1009.4 |
| 20260508160555 | 59 | 249 | 3.5 | 7.8 | 0.00 | 0.00 | 0.00 | 48 | 1009.4 |
| 20260508160053 | 59 | 203 | 4.3 | 7.8 | 0.00 | 0.00 | 0.00 | 46 | 1009.4 |
| 20260508155552 | 58 | 164 | 3.5 | 7.8 | 0.00 | 0.00 | 0.00 | 48 | 1009.4 |
| 20260508155050 | 58 | 185 | 4.3 | 7.8 | 0.00 | 0.00 | 0.00 | 53 | 1009.4 |
| 20260508154552 | 58 | 177 | 2.6 | 5.2 | 0.00 | 0.00 | 0.00 | 54 | 1009.4 |
| 20260508154049 | 58 | 144 | 0.9 | 6.1 | 0.00 | 0.00 | 0.00 | 53 | 1009.4 |
| 20260508153548 | 58 | 291 | 1.7 | 7.8 | 0.00 | 0.00 | 0.00 | 55 | 1009.4 |
| 20260508153048 | 58 | 133 | 3.5 | 7.8 | 0.00 | 0.00 | 0.00 | 53 | 1009.4 |
| 20260508152547 | 58 | 181 | 4.3 | 7.8 | 0.00 | 0.00 | 0.00 | 55 | 1009.4 |
| 20260508152047 | 58 | 297 | 2.6 | 5.2 | 0.00 | 0.00 | 0.00 | 56 | 1009.4 |
| 20260508151553 | 58 | 306 | 1.7 | 7.0 | 0.00 | 0.00 | 0.00 | 56 | 1009.4 |
| 20260508151045 | 57 | 245 | 1.7 | 7.0 | 0.00 | 0.00 | 0.00 | 56 | 1009.5 |
| 20260508150547 | 57 | 249 | 3.5 | 6.1 | 0.00 | 0.00 | 0.00 | 57 | 1009.5 |
| 20260508150044 | 57 | 317 | 1.7 | 5.2 | 0.00 | 0.00 | 0.00 | 58 | 1009.5 |
| 20260508145543 | 56 | 279 | 2.6 | 5.2 | 0.00 | 0.00 | 0.00 | 58 | 1009.6 |
| 20260508145041 | 56 | 239 | 1.7 | 5.2 | 0.00 | 0.00 | 0.00 | 59 | 1009.6 |
| 20260508144541 | 56 | 270 | 3.5 | 5.2 | 0.00 | 0.00 | 0.00 | 59 | 1009.6 |
| 20260508144039 | 55 | 223 | 0.9 | 3.5 | 0.00 | 0.00 | 0.00 | 56 | 1009.9 |
| 20260508143538 | 55 | 133 | 0.9 | 6.1 | 0.00 | 0.00 | 0.00 | 59 | 1009.9 |
| 20260508143036 | 55 | 238 | 1.7 | 6.1 | 0.00 | 0.00 | 0.00 | 59 | 1009.9 |
| 20260508142535 | 54 | 216 | 1.7 | 3.5 | 0.00 | 0.00 | 0.00 | 65 | 1010.0 |
| 20260508142035 | 54 | 167 | 0.9 | 2.6 | 0.00 | 0.00 | 0.00 | 65 | 1010.0 |
| 20260508141536 | 54 | 299 | 0.9 | 2.6 | 0.00 | 0.00 | 0.00 | 71 | 1010.0 |
| 20260508141032 | 53 | 290 | 0.0 | 2.6 | 0.00 | 0.00 | 0.00 | 74 | 1010.1 |
| 20260508140530 | 53 | 308 | 0.0 | 2.6 | 0.00 | 0.00 | 0.00 | 80 | 1010.1 |
| 20260508140029 | 52 | 308 | 1.7 | 2.6 | 0.00 | 0.00 | 0.00 | 80 | 1010.1 |
| 20260508135528 | 52 | 274 | 0.9 | 2.6 | 0.00 | 0.00 | 0.00 | 82 | 1010.1 |
| 20260508135026 | 51 | 297 | 1.7 | 2.6 | 0.00 | 0.00 | 0.00 | 84 | 1010.1 |
| 20260508134526 | 51 | 261 | 0.0 | 2.6 | 0.00 | 0.00 | 0.00 | 86 | 1010.1 |
| 20260508134024 | 50 | 261 | 0.0 | 2.6 | 0.00 | 0.00 | 0.00 | 87 | 1010.1 |
| 20260508133525 | 49 | 170 | 0.0 | 1.7 | 0.00 | 0.00 | 0.00 | 89 | 1010.1 |
| 20260508133030 | 49 | 153 | 0.0 | 3.5 | 0.00 | 0.00 | 0.00 | 89 | 1010.1 |
| 20260508132521 | 49 | 153 | 1.7 | 3.5 | 0.00 | 0.00 | 0.00 | 90 | 1010.1 |
| 20260508132025 | 49 | 265 | 0.0 | 1.7 | 0.00 | 0.00 | 0.00 | 90 | 1010.1 |
| 20260508131524 | 49 | 136 | 0.0 | 2.6 | 0.00 | 0.00 | 0.00 | 91 | 1010.1 |
| 20260508131020 | 49 | 152 | 0.9 | 2.6 | 0.00 | 0.00 | 0.00 | 93 | 1010.2 |
| 20260508130520 | 48 | 173 | 0.9 | 2.6 | 0.00 | 0.00 | 0.00 | 94 | 1010.2 |
| 20260508130017 | 47 | 322 | 0.9 | 2.6 | 0.00 | 0.00 | 0.00 | 94 | 1010.2 |
| 20260508125516 | 47 | 188 | 0.0 | 2.6 | 0.00 | 0.00 | 0.00 | 95 | 1010.3 |
| 20260508125018 | 47 | 188 | 1.7 | 4.3 | 0.00 | 0.00 | 0.00 | 95 | 1010.3 |
| 20260508124522 | 46 | 187 | 0.9 | 4.3 | 0.00 | 0.00 | 0.00 | 95 | 1010.3 |
| 20260508124013 | 46 | 192 | 2.6 | 4.3 | 0.00 | 0.00 | 0.00 | 95 | 1010.4 |
| 20260508123512 | 46 | 191 | 2.6 | 4.3 | 0.00 | 0.00 | 0.00 | 95 | 1010.4 |
| 20260508123013 | 46 | 195 | 2.6 | 5.2 | 0.00 | 0.00 | 0.00 | 95 | 1010.4 |
| 20260508122509 | 45 | 186 | 2.6 | 4.3 | 0.00 | 0.00 | 0.00 | 95 | 1010.2 |
| 20260508122009 | 45 | 187 | 1.7 | 3.5 | 0.00 | 0.00 | 0.00 | 95 | 1010.2 |
| 20260508121509 | 45 | 189 | 1.7 | 3.5 | 0.00 | 0.00 | 0.00 | 95 | 1010.2 |
| 20260508121009 | 45 | 179 | 1.7 | 2.6 | 0.00 | 0.00 | 0.00 | 95 | 1010.1 |
| 20260508120510 | 45 | 164 | 0.0 | 1.7 | 0.00 | 0.00 | 0.00 | 96 | 1010.1 |
| 20260508120007 | 44 | 164 | 0.0 | 0.9 | 0.00 | 0.00 | 0.00 | 96 | 1010.1 |
| 20260508115506 | 43 | 164 | 0.0 | 1.7 | 0.00 | 0.00 | 0.00 | 96 | 1010.2 |
| 20260508115007 | 42 | 164 | 0.0 | 2.6 | 0.00 | 0.00 | 0.00 | 95 | 1010.2 |
| 20260508114505 | 42 | 164 | 0.9 | 2.6 | 0.00 | 0.00 | 0.00 | 95 | 1010.2 |
| 20260508114005 | 41 | 164 | 0.9 | 2.6 | 0.00 | 0.00 | 0.00 | 95 | 1009.8 |
| 20260508113505 | 40 | 164 | 0.9 | 3.5 | 0.00 | 0.00 | 0.00 | 95 | 1009.8 |
| 20260508113005 | 40 | 164 | 1.7 | 3.5 | 0.00 | 0.00 | 0.00 | 95 | 1009.8 |
| 20260508112505 | 39 | 156 | 0.9 | 2.6 | 0.00 | 0.00 | 0.00 | 95 | 1009.7 |
| 20260508112004 | 39 | 156 | 0.0 | 2.6 | 0.00 | 0.00 | 0.00 | 95 | 1009.7 |
| 20260508111504 | 38 | 155 | 1.7 | 2.6 | 0.00 | 0.00 | 0.00 | 95 | 1009.7 |
| 20260508111004 | 38 | 150 | 0.9 | 1.7 | 0.00 | 0.00 | 0.00 | 95 | 1009.6 |
| 20260508110503 | 38 | 150 | 0.0 | 3.5 | 0.00 | 0.00 | 0.00 | 95 | 1009.6 |
| 20260508110008 | 38 | 150 | 1.7 | 3.5 | 0.00 | 0.00 | 0.00 | 95 | 1009.6 |
| 20260508105506 | 38 | 154 | 0.9 | 2.6 | 0.00 | 0.00 | 0.00 | 95 | 1009.6 |
| 20260508105003 | 38 | 150 | 0.9 | 3.5 | 0.00 | 0.00 | 0.00 | 95 | 1009.6 |
| 20260508104504 | 38 | 152 | 1.7 | 3.5 | 0.00 | 0.00 | 0.00 | 95 | 1009.6 |
| 20260508104003 | 37 | 131 | 1.7 | 3.5 | 0.00 | 0.00 | 0.00 | 95 | 1009.4 |
| 20260508103503 | 37 | 131 | 0.9 | 2.6 | 0.00 | 0.00 | 0.00 | 95 | 1009.4 |
| 20260508103002 | 36 | 118 | 0.9 | 2.6 | 0.00 | 0.00 | 0.00 | 95 | 1009.4 |
| 20260508102502 | 36 | 118 | 0.9 | 3.5 | 0.00 | 0.00 | 0.00 | 95 | 1009.2 |
| 20260508102002 | 35 | 118 | 2.6 | 3.5 | 0.00 | 0.00 | 0.00 | 94 | 1009.2 |
| 20260508101502 | 35 | 118 | 0.9 | 2.6 | 0.00 | 0.00 | 0.00 | 94 | 1009.2 |
| 20260508101002 | 35 | 118 | 1.7 | 4.3 | 0.00 | 0.00 | 0.00 | 94 | 1009.2 |
| 20260508100501 | 35 | 118 | 2.6 | 4.3 | 0.00 | 0.00 | 0.00 | 94 | 1009.2 |
| 20260508100001 | 35 | 118 | 2.6 | 3.5 | 0.00 | 0.00 | 0.00 | 94 | 1009.2 |
| 20260508095501 | 36 | 118 | 2.6 | 3.5 | 0.00 | 0.00 | 0.00 | 94 | 1009.5 |
| 20260508095101 | 36 | 118 | 2.6 | 3.5 | 0.00 | 0.00 | 0.00 | 94 | 1009.5 |
| 20260508094615 | 35 | 118 | 1.7 | 4.3 | 0.00 | 0.00 | 0.00 | 94 | 1009.5 |
| 20260508094100 | 35 | 118 | 2.6 | 4.3 | 0.00 | 0.00 | 0.00 | 94 | 1009.6 |
| 20260508093559 | 35 | 118 | 2.6 | 3.5 | 0.00 | 0.00 | 0.00 | 94 | 1009.6 |
| 20260508093057 | 35 | 118 | 0.9 | 2.6 | 0.00 | 0.00 | 0.00 | 94 | 1009.6 |
| 20260508092557 | 35 | 118 | 0.0 | 2.6 | 0.00 | 0.00 | 0.00 | 93 | 1009.6 |
| 20260508092058 | 36 | 118 | 0.9 | 2.6 | 0.00 | 0.00 | 0.00 | 94 | 1009.6 |
| 20260508091654 | 36 | 118 | 1.7 | 2.6 | 0.00 | 0.00 | 0.00 | 93 | 1009.6 |
| 20260508091054 | 36 | 120 | 0.9 | 2.6 | 0.00 | 0.00 | 0.00 | 94 | 1009.6 |
| 20260508090555 | 36 | 120 | 0.9 | 2.6 | 0.00 | 0.00 | 0.00 | 94 | 1009.6 |
| 20260508090106 | 36 | 120 | 0.9 | 3.5 | 0.00 | 0.00 | 0.00 | 94 | 1009.6 |
| 20260508085553 | 36 | 120 | 1.7 | 3.5 | 0.00 | 0.00 | 0.00 | 94 | 1009.6 |
| 20260508085056 | 36 | 120 | 1.7 | 3.5 | 0.00 | 0.00 | 0.00 | 93 | 1009.6 |
| 20260508084552 | 36 | 120 | 1.7 | 3.5 | 0.00 | 0.00 | 0.00 | 93 | 1009.6 |
| 20260508084052 | 37 | 120 | 1.7 | 4.3 | 0.00 | 0.00 | 0.00 | 94 | 1009.7 |
| 20260508083551 | 37 | 120 | 1.7 | 4.3 | 0.00 | 0.00 | 0.00 | 93 | 1009.7 |
| 20260508083050 | 37 | 116 | 2.6 | 3.5 | 0.00 | 0.00 | 0.00 | 93 | 1009.7 |
| 20260508082549 | 37 | 116 | 1.7 | 2.6 | 0.00 | 0.00 | 0.00 | 93 | 1009.7 |
| 20260508082051 | 37 | 116 | 1.7 | 2.6 | 0.00 | 0.00 | 0.00 | 93 | 1009.7 |
| 20260508081551 | 37 | 116 | 0.9 | 1.7 | 0.00 | 0.00 | 0.00 | 93 | 1009.7 |
| 20260508081048 | 37 | 116 | 0.9 | 1.7 | 0.00 | 0.00 | 0.00 | 93 | 1009.6 |
| 20260508080548 | 37 | 116 | 0.9 | 1.7 | 0.00 | 0.00 | 0.00 | 93 | 1009.6 |
| 20260508080053 | 37 | 116 | 0.9 | 3.5 | 0.00 | 0.00 | 0.00 | 93 | 1009.6 |
| 20260508075548 | 37 | 116 | 1.7 | 3.5 | 0.00 | 0.00 | 0.00 | 93 | 1009.6 |
| 20260508075049 | 37 | 106 | 1.7 | 3.5 | 0.00 | 0.00 | 0.00 | 93 | 1009.6 |
| 20260508074548 | 37 | 101 | 1.7 | 2.6 | 0.00 | 0.00 | 0.00 | 93 | 1009.6 |
| 20260508074047 | 37 | 82 | 1.7 | 2.6 | 0.00 | 0.00 | 0.00 | 92 | 1009.8 |
| 20260508073547 | 37 | 82 | 1.7 | 2.6 | 0.00 | 0.00 | 0.00 | 92 | 1009.8 |
| 20260508073049 | 37 | 7 | 0.0 | 1.7 | 0.00 | 0.00 | 0.00 | 92 | 1009.8 |
| 20260508072545 | 37 | 7 | 0.9 | 1.7 | 0.00 | 0.00 | 0.00 | 92 | 1009.8 |
| 20260508072043 | 37 | 7 | 0.0 | 0.9 | 0.00 | 0.00 | 0.00 | 92 | 1009.8 |
| 20260508071545 | 37 | 7 | 0.0 | 1.7 | 0.00 | 0.00 | 0.00 | 92 | 1009.8 |
| 20260508071041 | 37 | 7 | 0.9 | 1.7 | 0.00 | 0.00 | 0.00 | 91 | 1010.0 |
| 20260508070617 | 38 | 7 | 0.9 | 1.7 | 0.00 | 0.00 | 0.00 | 91 | 1010.0 |
| 20260508065538 | 38 | 7 | 0.0 | 1.7 | 0.00 | 0.00 | 0.00 | 91 | 1010.1 |
| 20260508065037 | 38 | 7 | 0.9 | 1.7 | 0.00 | 0.00 | 0.00 | 91 | 1010.1 |
| 20260508064540 | 38 | 7 | 0.0 | 0.9 | 0.00 | 0.00 | 0.00 | 90 | 1010.1 |
| 20260508064035 | 39 | 7 | 0.0 | 0.9 | 0.00 | 0.00 | 0.00 | 91 | 1010.1 |
| 20260508063534 | 39 | 7 | 0.0 | 0.9 | 0.00 | 0.00 | 0.00 | 91 | 1010.1 |
| 20260508063100 | 40 | 7 | 0.0 | 0.0 | 0.00 | 0.00 | 0.00 | 90 | 1010.1 |
| 20260508062531 | 40 | 7 | 0.0 | 0.0 | 0.00 | 0.00 | 0.00 | 90 | 1010.1 |
| 20260508062030 | 40 | 7 | 0.0 | 1.7 | 0.00 | 0.00 | 0.00 | 91 | 1010.1 |
| 20260508061532 | 41 | 7 | 0.0 | 3.5 | 0.00 | 0.00 | 0.00 | 91 | 1010.1 |
| 20260508061030 | 41 | 7 | 1.7 | 3.5 | 0.00 | 0.00 | 0.00 | 91 | 1010.3 |
| 20260508060533 | 41 | 6 | 0.9 | 5.2 | 0.00 | 0.00 | 0.00 | 91 | 1010.3 |
| 20260508060029 | 41 | 7 | 1.7 | 7.0 | 0.00 | 0.00 | 0.00 | 91 | 1010.3 |
| 20260508055526 | 41 | 350 | 5.2 | 7.0 | 0.00 | 0.00 | 0.00 | 91 | 1010.1 |
| 20260508055026 | 42 | 204 | 0.0 | 1.7 | 0.00 | 0.00 | 0.00 | 91 | 1010.1 |
| 20260508054526 | 41 | 204 | 0.0 | 2.6 | 0.00 | 0.00 | 0.00 | 90 | 1010.1 |
| 20260508054024 | 42 | 183 | 0.9 | 2.6 | 0.00 | 0.00 | 0.00 | 89 | 1010.1 |